Latest Coastal Weather Observations for Cape Borda

IDS60701

Issued at 3:01 pm CST Saturday 19 August 2017 (issued every 10 minutes, with the page automatically refreshed every 10 minutes)

About coastal observations | Map of coastal stations | Coastal observations for SA | Marine services | Other Formats
Station Details ID: 022823 Name: CAPE BORDA Lat: -35.75 Lon: 136.60 Height: 158.0 m
Data from the previous 72 hours. | See also: Recent months at Cape Borda
Date/Time
CST
Temp
°C
Wind Pressure Rain since
9am
mm
Weather Cloud Vis
km
Sea
Height
m
Swell
Dir  Spd
kts
Gust
kts
hPa Trend Height
m
Period
s
Dir
19/03:00pm 13.3 SW 9 12 1027.4 F 0.0 Fine Partly cloudy 22 <0.1 - - SW
19/02:30pm 12.6 SW 9 13 1027.2 - 0.0 - - - - - - -
19/02:00pm 13.1 SW 9 11 1027.5 - 0.0 - - - - - - -
19/01:30pm 13.3 SW 9 13 1027.7 - 0.0 - - - - - - -
19/01:00pm 13.7 SW 8 11 1028.1 - 0.0 - - - - - - -
19/12:30pm 13.1 SW 9 13 1028.6 - 0.0 - - - - - - -
19/12:00pm 13.1 SW 9 13 1029.3 - 0.0 - - - - - - -
19/11:30am 13.3 SW 7 12 1029.5 - 0.0 - - - - - - -
19/11:00am 12.5 SW 7 10 1029.6 - 0.0 - - - - - - -
19/10:30am 12.1 SSW 8 11 1029.8 - 0.0 - - - - - - -
19/10:00am 12.5 S 7 11 1029.7 - 0.0 - - - - - - -
19/09:30am 11.6 SSE 8 11 1029.9 - 0.0 - - - - - - -
19/09:00am 11.1 SSE 7 9 1029.9 R 0.6 Fine Mostly clear 20 <0.5 - - SW
19/08:30am 10.1 SSE 7 9 1029.4 - 0.6 - - - - - - -
19/08:00am 9.3 SSE 6 7 1029.3 - 0.6 - - - - - - -
19/07:30am 8.1 SSE 8 9 1028.9 - 0.6 - - - - - - -
19/07:00am 7.5 SSE 7 8 1028.5 - 0.6 - - - - - - -
19/06:30am 7.8 S 8 9 1028.1 - 0.6 - - - - - - -
19/06:00am 7.2 S 8 9 1028.1 - 0.6 - - - - - - -
19/05:30am 6.6 S 8 9 1027.7 - 0.6 - - - - - - -
19/05:00am 7.2 S 8 10 1027.3 - 0.6 - - - - - - -
19/04:30am 7.3 S 8 10 1027.3 - 0.6 - - - - - - -
19/04:00am 7.6 S 8 11 1027.0 - 0.6 - - - - - - -
19/03:30am 7.4 S 7 9 1027.0 - 0.6 - - - - - - -
19/03:00am 8.5 S 7 9 1027.3 - 0.6 - - - - - - -
19/02:30am 8.2 S 7 10 1027.1 - 0.6 - - - - - - -
19/02:00am 7.3 S 8 9 1027.0 - 0.6 - - - - - - -
19/01:30am 7.5 S 8 9 1027.0 - 0.6 - - - - - - -
19/01:00am 8.3 S 8 11 1027.0 - 0.6 - - - - - - -
19/12:30am 8.3 S 9 11 1027.0 - 0.6 - - - - - - -
19/12:00am 8.4 S 9 12 1027.2 - 0.6 - - - - - - -
 
Date/Time
CST
Temp
°C
Wind Pressure Rain since
9am
mm
Weather Cloud Vis
km
Sea
Height
m
Swell
Dir  Spd
kts
Gust
kts
hPa Trend Height
m
Period
s
Dir
18/11:30pm 8.9 S 10 14 1026.8 - 0.6 - - - - - - -
18/11:00pm 9.0 S 10 14 1026.8 - 0.6 - - - - - - -
18/10:30pm 9.5 SSW 11 16 1026.7 - 0.6 - - - - - - -
18/10:00pm 9.8 SSW 11 17 1026.8 - 0.6 - - - - - - -
18/09:30pm 10.2 SSW 11 16 1026.7 - 0.6 - - - - - - -
18/09:00pm 10.1 SSW 13 17 1026.7 - 0.6 - - - - - - -
18/08:30pm 9.9 SSW 13 19 1026.3 - 0.6 - - - - - - -
18/08:00pm 10.4 SSW 11 17 1026.0 - 0.6 - - - - - - -
18/07:30pm 10.4 SSW 11 16 1025.7 - 0.6 - - - - - - -
18/07:00pm 10.4 SSW 14 19 1025.6 - 0.6 - - - - - - -
18/06:30pm 10.8 SSW 14 20 1025.3 - 0.6 - - - - - - -
18/06:00pm 10.6 SW 14 21 1025.1 - 0.6 - - - - - - -
18/05:34pm 11.3 SW 15 25 1024.6 - 0.6 - - - - - - -
18/05:30pm 11.4 SW 15 22 1024.6 - 0.6 - - - - - - -
18/05:00pm 11.3 SW 16 22 1024.2 - 0.6 - - - - - - -
18/04:30pm 12.0 SW 17 23 1023.8 - 0.6 - - - - - - -
18/04:01pm 12.1 SW 15 25 1023.8 - 0.6 - - - - - - -
18/04:00pm 11.8 SW 16 25 1023.8 - 0.6 - - - - - - -
18/03:30pm 12.5 SW 19 26 1023.6 - 0.6 - - - - - - -
18/03:00pm 12.8 SW 18 24 1023.6 R 0.6 Fine Partly cloudy 20 3 - - SW
18/02:30pm 11.9 SW 18 26 1023.2 - 0.6 - - - - - - -
18/02:00pm 12.6 SW 18 24 1023.2 - 0.6 - - - - - - -
18/01:30pm 12.5 SW 19 25 1023.1 - 0.6 - - - - - - -
18/01:06pm 11.0 SW 15 26 1023.2 - 0.6 - - - - - - -
18/01:00pm 10.9 SW 14 22 1023.3 - 0.6 - - - - - - -
18/12:39pm 9.6 SW 16 26 1023.3 - 0.6 - - - - - - -
18/12:30pm 10.8 SW 19 26 1023.4 - 0.4 - - - - - - -
18/12:00pm 10.3 SW 17 27 1023.6 - 0.2 - - - - - - -
18/11:47am 11.5 SSW 17 28 1023.2 - 0.2 - - - - - - -
18/11:30am 12.4 SW 18 25 1023.2 - 0.2 - - - - - - -
18/11:00am 11.2 SW 16 27 1023.1 - 0.2 - - - - - - -
18/10:57am 11.2 SW 17 27 1023.1 - 0.2 - - - - - - -
18/10:30am 12.3 SW 19 27 1022.7 - 0.2 - - - - - - -
18/10:00am 8.6 SW 19 35 1022.4 - 0.2 - - - - - - -
18/09:52am 10.0 WSW 23 35 1022.4 - 0.0 - - - - - - -
18/09:33am 10.3 SSW 17 23 1022.1 - 0.0 - - - - - - -
18/09:30am 10.8 WSW 21 30 1022.0 - 0.0 - - - - - - -
18/09:04am 10.9 SW 15 26 1021.4 - 0.0 - - - - - - -
18/09:00am 11.2 SW 14 23 1021.5 R 6.2 Distant precip. Partly cloudy 18 3 - - SW
18/08:40am 9.0 SW 16 26 1021.1 - 6.2 - - - - - - -
18/08:30am 8.7 SW 17 25 1021.0 - 6.2 - - - - - - -
18/08:00am 10.0 SW 17 27 1020.1 - 6.2 - - - - - - -
18/07:33am 9.8 SW 19 29 1019.5 - 6.2 - - - - - - -
18/07:30am 9.5 SW 19 28 1019.5 - 6.2 - - - - - - -
18/07:05am 9.1 SSW 18 37 1019.3 - 5.8 - - - - - - -
18/07:02am 9.3 SSW 16 26 1019.0 - 5.8 - - - - - - -
18/07:00am 9.1 SSW 16 23 1019.0 - 5.8 - - - - - - -
18/06:30am 8.4 SSW 19 34 1018.8 - 5.8 - - - - - - -
18/06:00am 9.9 SW 21 32 1018.3 - 5.8 - - - - - - -
18/05:30am 10.3 SW 21 35 1017.4 - 5.8 - - - - - - -
18/05:00am 10.1 SW 22 32 1017.0 - 5.8 - - - - - - -
18/04:35am 10.1 WSW 23 33 1016.6 - 5.8 - - - - - - -
18/04:30am 9.8 WSW 24 30 1016.5 - 5.8 - - - - - - -
18/04:01am 8.8 SSW 19 31 1016.1 - 5.8 - - - - - - -
18/04:00am 8.8 SSW 18 27 1016.2 - 5.8 - - - - - - -
18/03:55am 8.9 SSW 19 27 1016.2 - 5.8 - - - - - - -
18/03:30am 10.2 WSW 20 31 1015.9 - 5.8 - - - - - - -
18/03:04am 9.1 SW 21 35 1015.6 - 5.6 - - - - - - -
18/03:00am 9.6 SW 17 22 1015.7 - 5.6 - - - - - - -
18/02:36am 7.7 W 23 35 1015.7 - 5.6 - - - - - - -
18/02:30am 8.0 SW 21 32 1015.5 - 5.6 - - - - - - -
18/02:24am 8.8 SW 19 32 1015.3 - 5.4 - - - - - - -
18/02:00am 8.2 SW 19 28 1015.4 - 5.2 - - - - - - -
18/01:30am 8.4 SW 20 31 1015.0 - 5.0 - - - - - - -
18/01:00am 9.4 WSW 21 31 1014.8 - 4.4 - - - - - - -
18/12:49am 9.4 WSW 18 29 1014.6 - 4.4 - - - - - - -
18/12:43am 9.2 W 17 22 1014.6 - 4.4 - - - - - - -
18/12:30am 9.1 SW 20 34 1014.4 - 4.4 - - - - - - -
18/12:00am 9.1 WSW 21 31 1014.1 - 4.2 - - - - - - -
 
Date/Time
CST
Temp
°C
Wind Pressure Rain since
9am
mm
Weather Cloud Vis
km
Sea
Height
m
Swell
Dir  Spd
kts
Gust
kts
hPa Trend Height
m
Period
s
Dir
17/11:48pm 8.1 W 23 33 1014.0 - 4.2 - - - - - - -
17/11:41pm 9.5 SW 21 32 1013.7 - 4.2 - - - - - - -
17/11:30pm 9.9 WSW 22 30 1013.5 - 4.2 - - - - - - -
17/11:00pm 9.3 WSW 23 35 1013.0 - 4.2 - - - - - - -
17/10:30pm 10.7 WSW 25 35 1012.6 - 3.4 - - - - - - -
17/10:00pm 10.7 WSW 26 38 1012.4 - 3.4 - - - - - - -
17/09:30pm 10.0 WSW 24 39 1012.0 - 3.4 - - - - - - -
17/09:00pm 10.3 W 27 39 1012.0 - 3.2 - - - - - - -
17/08:30pm 10.1 WSW 23 37 1011.3 - 3.2 - - - - - - -
17/08:00pm 8.9 WSW 23 36 1011.1 - 3.2 - - - - - - -
17/07:52pm 8.8 SW 26 36 1010.9 - 3.2 - - - - - - -
17/07:50pm 9.1 SW 27 36 1010.8 - 3.2 - - - - - - -
17/07:30pm 11.0 W 30 43 1010.2 - 3.2 - - - - - - -
17/07:00pm 10.7 W 29 44 1009.9 - 3.2 - - - - - - -
17/06:30pm 10.8 W 27 37 1009.3 - 3.2 - - - - - - -
17/06:00pm 10.7 W 28 43 1009.1 - 3.2 - - - - - - -
17/05:30pm 10.3 W 25 37 1008.6 - 3.2 - - - - - - -
17/05:00pm 9.4 WSW 27 42 1008.2 - 3.2 - - - - - - -
17/04:56pm 9.0 WSW 32 42 1008.2 - 3.2 - - - - - - -
17/04:55pm 9.3 WSW 33 42 1008.1 - 3.2 - - - - - - -
17/04:30pm 10.3 W 23 35 1007.3 - 3.2 - - - - - - -
17/04:18pm 9.1 W 25 35 1007.3 - 3.2 - - - - - - -
17/04:14pm 9.0 W 25 30 1007.3 - 3.0 - - - - - - -
17/04:01pm 10.3 WSW 23 33 1007.0 - 2.0 - - - - - - -
17/04:00pm 10.2 WSW 23 31 1007.0 - 2.0 - - - - - - -
17/03:51pm 11.0 WSW 28 38 1007.0 - 2.0 - - - - - - -
17/03:30pm 12.9 W 27 40 1006.7 - 2.0 - - - - - - -
17/03:00pm 12.4 W 26 38 1006.8 - 2.0 - - - - - - -
17/02:30pm 12.7 W 27 39 1006.5 - 2.0 - - - - - - -
17/02:00pm 13.0 W 28 38 1006.2 - 2.0 - - - - - - -
17/01:30pm 11.6 W 24 38 1006.5 - 2.0 - - - - - - -
17/01:00pm 9.9 W 25 37 1006.6 - 2.0 - - - - - - -
17/12:30pm 8.9 W 27 42 1006.5 - 2.0 - - - - - - -
17/12:00pm 11.6 WNW 27 37 1006.5 - 1.0 - - - - - - -
17/11:30am 11.1 W 25 37 1006.1 - 1.0 - - - - - - -
17/11:00am 11.3 W 20 30 1006.5 - 1.0 - - - - - - -
17/10:30am 9.4 W 29 42 1006.7 - 1.0 - - - - - - -
17/10:21am 8.4 W 29 39 1006.7 - 0.8 - - - - - - -
17/10:19am 9.7 W 26 35 1006.6 - 0.2 - - - - - - -
17/10:01am 8.6 WSW 22 32 1006.5 - 0.0 - - - - - - -
17/10:00am 8.3 WSW 23 32 1006.5 - 0.0 - - - - - - -
17/09:32am 9.5 W 20 30 1006.0 - 0.0 - - - - - - -
17/09:30am 9.5 W 21 30 1005.9 - 0.0 - - - - - - -
17/09:00am 9.8 W 18 28 1006.1 - 4.6 - - - - - - -
17/08:30am 11.6 W 20 37 1005.3 - 4.2 - - - - - - -
17/08:00am 12.1 W 22 37 1005.2 - 4.2 - - - - - - -
17/07:30am 12.2 WNW 23 34 1004.7 - 4.2 - - - - - - -
17/07:00am 12.2 W 24 34 1004.6 - 4.2 - - - - - - -
17/06:41am 12.0 W 23 33 1004.4 - 4.2 - - - - - - -
17/06:30am 11.9 W 22 30 1004.4 - 4.2 - - - - - - -
17/06:01am 11.9 W 22 32 1004.3 - 4.2 - - - - - - -
17/06:00am 12.0 W 22 31 1004.4 - 4.2 - - - - - - -
17/05:31am 11.5 W 22 32 1004.3 - 4.2 - - - - - - -
17/05:30am 11.7 W 23 32 1004.2 - 4.2 - - - - - - -
17/05:00am 11.5 W 21 33 1004.2 - 4.2 - - - - - - -
17/04:36am 11.5 W 23 35 1003.9 - 4.2 - - - - - - -
17/04:30am 11.5 W 21 30 1003.9 - 4.2 - - - - - - -
17/04:00am 11.2 W 20 33 1004.0 - 4.2 - - - - - - -
17/03:52am 10.9 W 17 33 1004.0 - 4.2 - - - - - - -
17/03:30am 10.5 W 17 26 1003.9 - 4.2 - - - - - - -
17/03:20am 10.5 W 17 27 1003.8 - 4.2 - - - - - - -
17/03:00am 10.0 W 15 24 1003.9 - 4.0 - - - - - - -
17/02:30am 9.5 W 14 25 1004.1 - 4.0 - - - - - - -
17/02:01am 10.1 WSW 23 33 1004.4 - 2.4 - - - - - - -
17/02:00am 10.1 WSW 24 33 1004.4 - 2.4 - - - - - - -
17/01:55am 10.4 WSW 23 33 1004.2 - 2.2 - - - - - - -
17/01:54am 10.7 WSW 21 30 1004.3 - 2.2 - - - - - - -
17/01:30am 12.4 WNW 21 31 1003.9 - 2.2 - - - - - - -
17/01:00am 12.6 WNW 22 32 1004.2 - 2.2 - - - - - - -
17/12:33am 12.6 WNW 21 31 1004.3 - 2.2 - - - - - - -
17/12:30am 12.6 WNW 22 31 1004.3 - 2.2 - - - - - - -
17/12:24am 12.7 WNW 23 33 1004.3 - 2.2 - - - - - - -
17/12:00am 12.6 WNW 20 27 1004.4 - 2.2 - - - - - - -
 
Date/Time
CST
Temp
°C
Wind Pressure Rain since
9am
mm
Weather Cloud Vis
km
Sea
Height
m
Swell
Dir  Spd
kts
Gust
kts
hPa Trend Height
m
Period
s
Dir
16/11:43pm 12.8 WNW 21 31 1004.5 - 2.2 - - - - - - -
16/11:30pm 12.8 WNW 21 29 1004.7 - 2.2 - - - - - - -
16/11:00pm 12.8 WNW 22 29 1004.9 - 2.2 - - - - - - -
16/10:30pm 12.6 W 19 28 1005.2 - 2.2 - - - - - - -
16/10:00pm 12.6 W 20 29 1005.3 - 2.2 - - - - - - -
16/09:39pm 12.7 W 18 28 1005.4 - 2.2 - - - - - - -
16/09:30pm 12.7 W 21 29 1005.5 - 2.2 - - - - - - -
16/09:00pm 12.6 W 22 31 1005.4 - 2.2 - - - - - - -
16/08:38pm 12.3 W 20 30 1005.4 - 2.2 - - - - - - -
16/08:30pm 12.2 W 20 28 1005.3 - 2.2 - - - - - - -
16/08:14pm 12.1 W 20 30 1005.1 - 2.2 - - - - - - -
16/08:00pm 12.1 W 22 31 1005.1 - 2.2 - - - - - - -
16/07:55pm 12.0 W 21 31 1005.0 - 2.2 - - - - - - -
16/07:30pm 11.6 W 19 26 1004.6 - 2.2 - - - - - - -
16/07:01pm 11.2 W 23 33 1004.7 - 2.0 - - - - - - -
16/07:00pm 11.3 W 24 33 1004.7 - 2.0 - - - - - - -
16/06:51pm 12.2 W 21 32 1004.6 - 1.4 - - - - - - -
16/06:30pm 11.7 WNW 21 30 1004.3 - 1.4 - - - - - - -
16/06:00pm 11.8 W 21 28 1004.2 - 1.4 - - - - - - -
16/05:30pm 10.8 W 28 41 1004.3 - 1.2 - - - - - - -
16/05:00pm 13.4 WNW 24 35 1003.8 - 0.6 - - - - - - -
16/04:30pm 13.4 WNW 25 35 1003.7 - 0.6 - - - - - - -
16/04:00pm 13.4 WNW 22 35 1003.6 - 0.6 - - - - - - -
16/03:30pm 13.6 WNW 19 30 1003.8 - 0.6 - - - - - - -

Other Formats:

Comma delimited format used in spreadsheet applications
http://www.bom.gov.au/fwo/IDS60701/IDS60701.95805.axf

JavaScript Object Notation format (JSON) in row-major order
http://www.bom.gov.au/fwo/IDS60701/IDS60701.95805.json